When you browse on this site, cookies collect data to enhance your experience and personalize the content and advertising you see.
Visit our Privacy Policy to learn more. By continuing to use the site, you agree to this use of cookies and data.
  • en Suisse
  • Liste des pays
  • À 7 jours
  • Température de l'eau
  • Carte satellitaire
  • Carte météo
  • Widgets météo
  • user-avatar
    Se connecter

    Météo par heure à Tovsta

    Ce jour, 17 Juillet, Mercredi

    Heure Température Précipitation Vent Pression Humidité
    00:00 +15°C° 0 mm 2 m/s 738 mmHg 77%
    01:00 +15°C° 0 mm 2 m/s 738 mmHg 78%
    02:00 +15°C° 0 mm 2 m/s 738 mmHg 75%
    03:00 +15°C° 0 mm 2 m/s 738 mmHg 77%
    04:00 +15°C° 0 mm 2 m/s 737 mmHg 79%
    05:00 +14°C° 0 mm 2 m/s 737 mmHg 81%
    06:00 +16°C° 0 mm 2 m/s 738 mmHg 78%
    07:00 +18°C° 0 mm 3 m/s 738 mmHg 76%
    08:00 +19°C° 0 mm 3 m/s 738 mmHg 73%
    09:00 +19°C° 0.6 mm 4 m/s 738 mmHg 75%
    10:00 +19°C° 0.6 mm 4 m/s 738 mmHg 76%
    11:00 +17°C° 0.6 mm 5 m/s 738 mmHg 78%
    12:00 +20°C° 0 mm 4 m/s 738 mmHg 70%
    13:00 +21°C° 0 mm 4 m/s 737 mmHg 63%
    14:00 +22°C° 0 mm 3 m/s 737 mmHg 56%
    15:00 +22°C° 0 mm 4 m/s 737 mmHg 57%
    16:00 +22°C° 0 mm 4 m/s 737 mmHg 58%
    17:00 +22°C° 0 mm 4 m/s 737 mmHg 59%
    18:00 +20°C° 0 mm 3 m/s 737 mmHg 66%
    19:00 +19°C° 0 mm 3 m/s 737 mmHg 73%
    20:00 +17°C° 0 mm 3 m/s 737 mmHg 81%
    21:00 +16°C° 0.1 mm 3 m/s 737 mmHg 84%
    22:00 +14°C° 0.1 mm 3 m/s 737 mmHg 87%
    23:00 +14°C° 0.1 mm 3 m/s 737 mmHg 91%

    Demain, 18 Juillet, Jeudi

    Heure Température Précipitation Vent Pression Humidité
    00:00 +13°C° 0 mm 3 m/s 737 mmHg 92%
    01:00 +13°C° 0 mm 3 m/s 737 mmHg 93%
    02:00 +12°C° 0 mm 3 m/s 737 mmHg 94%
    03:00 +12°C° 0 mm 3 m/s 737 mmHg 95%
    04:00 +12°C° 0 mm 3 m/s 738 mmHg 95%
    05:00 +11°C° 0 mm 3 m/s 738 mmHg 95%
    06:00 +13°C° 0 mm 3 m/s 738 mmHg 88%
    07:00 +16°C° 0 mm 3 m/s 738 mmHg 81%
    08:00 +18°C° 0 mm 4 m/s 739 mmHg 75%
    09:00 +19°C° 0 mm 4 m/s 739 mmHg 69%
    10:00 +20°C° 0 mm 4 m/s 739 mmHg 64%
    11:00 +21°C° 0 mm 4 m/s 739 mmHg 59%
    12:00 +22°C° 0 mm 5 m/s 739 mmHg 57%
    13:00 +22°C° 0 mm 5 m/s 739 mmHg 55%
    14:00 +23°C° 0 mm 5 m/s 739 mmHg 54%
    15:00 +23°C° 0.1 mm 5 m/s 739 mmHg 56%
    16:00 +22°C° 0.1 mm 5 m/s 739 mmHg 59%
    17:00 +22°C° 0.1 mm 5 m/s 740 mmHg 61%
    18:00 +20°C° 0.1 mm 4 m/s 740 mmHg 69%
    19:00 +19°C° 0.1 mm 3 m/s 740 mmHg 76%
    20:00 +17°C° 0.1 mm 3 m/s 740 mmHg 84%
    21:00 +16°C° 0 mm 3 m/s 740 mmHg 86%
    22:00 +16°C° 0 mm 3 m/s 741 mmHg 89%
    23:00 +15°C° 0 mm 2 m/s 741 mmHg 92%

    Après-demain, 19 Juillet, Vendredi

    Heure Température Précipitation Vent Pression Humidité
    00:00 +14°C° 0 mm 2 m/s 741 mmHg 93%
    01:00 +13°C° 0 mm 3 m/s 741 mmHg 93%
    02:00 +13°C° 0 mm 3 m/s 741 mmHg 93%
    03:00 +14°C° 0 mm 2 m/s 742 mmHg 93%
    04:00 +14°C° 0 mm 2 m/s 742 mmHg 93%
    05:00 +13°C° 0 mm 2 m/s 742 mmHg 93%
    06:00 +15°C° 0 mm 2 m/s 742 mmHg 86%
    07:00 +17°C° 0 mm 3 m/s 743 mmHg 80%
    08:00 +19°C° 0 mm 3 m/s 743 mmHg 74%
    09:00 +20°C° 0 mm 3 m/s 743 mmHg 67%
    10:00 +22°C° 0 mm 3 m/s 743 mmHg 61%
    11:00 +24°C° 0 mm 3 m/s 743 mmHg 55%
    12:00 +25°C° 0 mm 3 m/s 743 mmHg 52%
    13:00 +26°C° 0 mm 3 m/s 743 mmHg 49%
    14:00 +26°C° 0 mm 3 m/s 743 mmHg 46%
    15:00 +26°C° 0 mm 3 m/s 743 mmHg 47%
    16:00 +26°C° 0 mm 3 m/s 743 mmHg 49%
    17:00 +26°C° 0 mm 2 m/s 743 mmHg 51%
    18:00 +24°C° 0 mm 2 m/s 743 mmHg 57%
    19:00 +22°C° 0 mm 1 m/s 743 mmHg 63%
    20:00 +20°C° 0 mm 1 m/s 744 mmHg 69%
    21:00 +19°C° 0 mm 1 m/s 744 mmHg 69%
    22:00 +19°C° 0 mm 1 m/s 744 mmHg 70%
    23:00 +18°C° 0 mm 1 m/s 744 mmHg 70%

    20 Juillet, Samedi

    Heure Température Précipitation Vent Pression Humidité
    00:00 +18°C° 0 mm 1 m/s 744 mmHg 72%
    01:00 +18°C° 0 mm 1 m/s 744 mmHg 73%
    02:00 +16°C° 0 mm 1 m/s 744 mmHg 75%
    03:00 +18°C° 0 mm 1 m/s 744 mmHg 75%
    04:00 +18°C° 0 mm 1 m/s 744 mmHg 75%
    05:00 +18°C° 0 mm 1 m/s 744 mmHg 75%
    06:00 +20°C° 0 mm 1 m/s 745 mmHg 71%
    07:00 +22°C° 0 mm 1 m/s 745 mmHg 66%
    08:00 +23°C° 0 mm 1 m/s 745 mmHg 62%
    09:00 +25°C° 0.1 mm 2 m/s 745 mmHg 59%
    10:00 +26°C° 0.1 mm 2 m/s 745 mmHg 57%
    11:00 +27°C° 0.1 mm 2 m/s 745 mmHg 55%
    12:00 +28°C° 0.3 mm 2 m/s 745 mmHg 51%
    13:00 +28°C° 0.3 mm 2 m/s 745 mmHg 48%
    14:00 +29°C° 0.3 mm 2 m/s 745 mmHg 45%
    15:00 +28°C° 0 mm 2 m/s 745 mmHg 48%
    16:00 +28°C° 0 mm 1 m/s 745 mmHg 51%
    17:00 +28°C° 0 mm 1 m/s 744 mmHg 54%
    18:00 +26°C° 0.6 mm 2 m/s 744 mmHg 63%
    19:00 +24°C° 0.6 mm 2 m/s 745 mmHg 71%
    20:00 +21°C° 0.6 mm 2 m/s 745 mmHg 79%
    21:00 +21°C° 0.2 mm 1 m/s 745 mmHg 81%
    22:00 +20°C° 0.2 mm 1 m/s 745 mmHg 82%
    23:00 +19°C° 0.2 mm 1 m/s 745 mmHg 83%

    21 Juillet, Dimanche

    Heure Température Précipitation Vent Pression Humidité
    00:00 +19°C° 0.1 mm 1 m/s 745 mmHg 84%
    01:00 +19°C° 0.1 mm 1 m/s 745 mmHg 84%
    02:00 +19°C° 0.1 mm 1 m/s 745 mmHg 85%
    03:00 +19°C° 0.1 mm 1 m/s 745 mmHg 86%
    04:00 +19°C° 0.1 mm 1 m/s 745 mmHg 87%
    05:00 +19°C° 0.1 mm 1 m/s 745 mmHg 88%
    06:00 +20°C° 0 mm 1 m/s 745 mmHg 83%
    07:00 +21°C° 0 mm 1 m/s 745 mmHg 79%
    08:00 +23°C° 0 mm 1 m/s 745 mmHg 75%
    09:00 +24°C° 0 mm 1 m/s 745 mmHg 69%
    10:00 +26°C° 0 mm 1 m/s 745 mmHg 62%
    11:00 +28°C° 0 mm 1 m/s 745 mmHg 56%
    12:00 +28°C° 0.1 mm 1 m/s 745 mmHg 54%
    13:00 +29°C° 0.1 mm 1 m/s 745 mmHg 51%
    14:00 +30°C° 0.1 mm 1 m/s 745 mmHg 48%
    15:00 +29°C° 0.4 mm 2 m/s 745 mmHg 54%
    16:00 +28°C° 0.4 mm 2 m/s 745 mmHg 59%
    17:00 +27°C° 0.4 mm 3 m/s 744 mmHg 65%
    18:00 +25°C° 0.1 mm 2 m/s 744 mmHg 69%
    19:00 +24°C° 0.1 mm 2 m/s 745 mmHg 73%
    20:00 +22°C° 0.1 mm 1 m/s 745 mmHg 77%
    21:00 +22°C° 0 mm 1 m/s 745 mmHg 77%
    22:00 +21°C° 0 mm 1 m/s 745 mmHg 78%
    23:00 +19°C° 0 mm 0 m/s 745 mmHg 79%

    22 Juillet, Lundi

    Heure Température Précipitation Vent Pression Humidité
    00:00 +19°C° 0 mm 0 m/s 745 mmHg 80%
    01:00 +18°C° 0 mm 0 m/s 745 mmHg 80%
    02:00 +18°C° 0 mm 0 m/s 744 mmHg 81%
    03:00 +18°C° 0 mm 0 m/s 744 mmHg 81%
    04:00 +18°C° 0 mm 0 m/s 744 mmHg 81%
    05:00 +18°C° 0 mm 0 m/s 744 mmHg 81%
    06:00 +19°C° 0 mm 0 m/s 744 mmHg 78%
    07:00 +21°C° 0 mm 0 m/s 744 mmHg 75%
    08:00 +22°C° 0 mm 0 m/s 744 mmHg 71%
    09:00 +23°C° 0 mm 0 m/s 744 mmHg 67%
    10:00 +26°C° 0 mm 1 m/s 744 mmHg 62%
    11:00 +27°C° 0 mm 1 m/s 744 mmHg 58%
    12:00 +28°C° 0 mm 1 m/s 744 mmHg 54%
    13:00 +29°C° 0 mm 1 m/s 744 mmHg 51%
    14:00 +30°C° 0 mm 1 m/s 743 mmHg 47%
    15:00 +29°C° 0.1 mm 1 m/s 743 mmHg 51%
    16:00 +29°C° 0.1 mm 1 m/s 743 mmHg 54%
    17:00 +28°C° 0.1 mm 1 m/s 742 mmHg 58%
    18:00 +26°C° 0.5 mm 1 m/s 742 mmHg 68%
    19:00 +24°C° 0.5 mm 1 m/s 742 mmHg 77%
    20:00 +22°C° 0.5 mm 1 m/s 742 mmHg 87%
    21:00 +21°C° 0 mm 1 m/s 742 mmHg 88%
    22:00 +21°C° 0 mm 1 m/s 742 mmHg 89%
    23:00 +21°C° 0 mm 1 m/s 742 mmHg 89%
    Voir plus